QPF
0.00 0.00 0.00 0.00 0.00 0.00 0.00 0.00 0.00 0.00 0.00 0.00 0.00 0.00 0.00 0.00 0.00 0.00 0.00 0.00 0.00 0.00 0.00 0.00 0.00 0.00 0.00 0.01 0.02 0.02 0.02 0.01 0.01 0.01 0.02 0.02 0.03 0.05 0.08 0.08 0.04 0.02 0.02 0.02
0.00 0.00 0.00 0.00 0.00 0.00 0.00 0.00 0.00 0.01 0.01 0.00 0.01 0.01 0.01 0.01 0.01 0.01 0.01 0.01 0.00 0.00 0.00 0.00 0.00 0.00 0.00 0.01 0.02 0.02 0.02 0.02 0.01 0.01 0.02 0.02 0.02 0.03 0.05 0.05 0.03 0.02 0.02 0.02
0.01 0.00 0.00 0.00 0.00 0.00 0.01 0.01 0.02 0.01 0.01 0.01 0.01 0.02 0.01 0.01 0.01 0.02 0.02 0.01 0.01 0.01 0.01 0.00 0.00 0.00 0.00 0.00 0.01 0.01 0.02 0.02 0.02 0.01 0.01 0.02 0.02 0.02 0.02 0.03 0.03 0.03 0.02 0.03
0.01 0.01 0.01 0.00 0.00 0.01 0.01 0.01 0.02 0.02 0.01 0.01 0.01 0.01 0.02 0.02 0.02 0.03 0.04 0.04 0.02 0.01 0.01 0.01 0.00 0.00 0.00 0.00 0.00 0.01 0.01 0.02 0.02 0.01 0.02 0.02 0.03 0.03 0.02 0.02 0.03 0.03 0.02 0.01
0.01 0.01 0.01 0.01 0.01 0.01 0.02 0.02 0.01 0.01 0.01 0.01 0.01 0.01 0.01 0.02 0.03 0.04 0.05 0.04 0.03 0.02 0.01 0.00 0.00 0.01 0.01 0.01 0.01 0.01 0.01 0.01 0.02 0.02 0.02 0.02 0.02 0.02 0.03 0.03 0.03 0.03 0.03 0.03
0.01 0.01 0.01 0.01 0.01 0.01 0.03 0.03 0.02 0.02 0.02 0.01 0.01 0.01 0.01 0.01 0.02 0.02 0.02 0.02 0.02 0.02 0.01 0.01 0.00 0.01 0.01 0.01 0.01 0.01 0.01 0.01 0.01 0.02 0.02 0.01 0.01 0.01 0.02 0.03 0.03 0.02 0.03 0.03
0.01 0.02 0.02 0.02 0.01 0.02 0.04 0.03 0.02 0.02 0.02 0.01 0.01 0.01 0.01 0.01 0.01 0.01 0.01 0.01 0.00 0.01 0.01 0.01 0.01 0.01 0.01 0.01 0.01 0.02 0.02 0.02 0.02 0.01 0.01 0.02 0.02 0.02 0.02 0.02 0.02 0.02 0.02 0.02
0.01 0.01 0.02 0.02 0.02 0.03 0.03 0.02 0.02 0.02 0.02 0.02 0.01 0.01 0.01 0.01 0.01 0.01 0.01 0.01 0.01 0.01 0.01 0.01 0.01 0.00 0.01 0.01 0.01 0.01 0.02 0.01 0.01 0.01 0.01 0.02 0.02 0.02 0.03 0.03 0.02 0.02 0.02 0.02
0.01 0.01 0.01 0.01 0.02 0.02 0.02 0.01 0.02 0.02 0.01 0.02 0.02 0.01 0.01 0.01 0.01 0.01 0.01 0.01 0.01 0.01 0.01 0.01 0.01 0.01 0.01 0.01 0.01 0.01 0.01 0.01 0.01 0.01 0.02 0.02 0.02 0.02 0.03 0.03 0.03 0.02 0.01 0.02
0.00 0.00 0.01 0.01 0.01 0.02 0.02 0.01 0.01 0.01 0.01 0.01 0.02 0.02 0.01 0.01 0.01 0.01 0.01 0.01 0.02 0.02 0.02 0.02 0.01 0.01 0.01 0.01 0.01 0.01 0.02 0.02 0.02 0.02 0.02 0.02 0.02 0.02 0.03 0.03 0.02 0.02 0.02 0.01
0.01 0.01 0.01 0.01 0.01 0.02 0.02 0.02 0.01 0.01 0.01 0.01 0.02 0.01 0.01 0.01 0.01 0.01 0.01 0.01 0.02 0.03 0.03 0.03 0.02 0.01 0.01 0.01 0.01 0.01 0.02 0.02 0.02 0.03 0.03 0.02 0.02 0.02 0.03 0.03 0.03 0.02 0.02 0.01
0.02 0.02 0.01 0.01 0.01 0.02 0.02 0.02 0.01 0.00 0.00 0.00 0.00 0.01 0.00 0.01 0.01 0.01 0.01 0.02 0.02 0.02 0.03 0.03 0.02 0.01 0.01 0.01 0.01 0.01 0.01 0.03 0.02 0.03 0.03 0.03 0.02 0.02 0.04 0.03 0.03 0.02 0.02 0.02
0.01 0.01 0.01 0.01 0.01 0.01 0.01 0.01 0.00 0.00 0.00 0.00 0.00 0.00 0.00 0.00 0.00 0.01 0.01 0.01 0.02 0.02 0.03 0.04 0.03 0.02 0.02 0.01 0.01 0.01 0.02 0.03 0.02 0.02 0.03 0.04 0.03 0.03 0.02 0.02 0.02 0.01 0.01 0.01
0.01 0.01 0.00 0.00 0.01 0.01 0.01 0.00 0.00 0.00 0.00 0.00 0.00 0.00 0.00 0.00 0.00 0.00 0.01 0.01 0.01 0.02 0.03 0.04 0.04 0.04 0.03 0.02 0.02 0.01 0.01 0.02 0.02 0.03 0.03 0.03 0.04 0.03 0.02 0.01 0.01 0.01 0.01 0.01
0.00 0.00 0.00 0.00 0.00 0.01 0.00 0.00 0.00 0.01 0.00 0.00 0.00 0.00 0.00 0.00 0.00 0.00 0.00 0.01 0.01 0.01 0.02 0.04 0.05 0.07 0.07 0.07 0.04 0.02 0.02 0.01 0.02 0.02 0.02 0.03 0.02 0.02 0.01 0.01 0.01 0.01 0.01 0.02
0.00 0.00 0.00 0.00 0.00 0.00 0.00 0.00 0.01 0.01 0.00 0.01 0.01 0.00 0.00 0.01 0.01 0.00 0.00 0.01 0.02 0.02 0.04 0.05 0.06 0.07 0.08 0.08 0.06 0.05 0.04 0.02 0.02 0.02 0.02 0.02 0.02 0.01 0.01 0.01 0.01 0.01 0.01 0.02
0.00 0.00 0.00 0.00 0.00 0.00 0.00 0.00 0.00 0.00 0.01 0.01 0.01 0.01 0.01 0.01 0.01 0.01 0.01 0.01 0.02 0.02 0.02 0.03 0.03 0.04 0.05 0.07 0.07 0.06 0.04 0.03 0.03 0.02 0.02 0.03 0.02 0.02 0.01 0.01 0.01 0.02 0.02 0.02
0.00 0.00 0.00 0.00 0.00 0.00 0.00 0.00 0.00 0.00 0.01 0.01 0.01 0.01 0.01 0.01 0.02 0.02 0.02 0.01 0.02 0.02 0.02 0.01 0.01 0.02 0.02 0.04 0.05 0.06 0.05 0.04 0.03 0.03 0.03 0.03 0.02 0.02 0.01 0.01 0.01 0.02 0.02 0.03
0.00 0.00 0.00 0.01 0.01 0.01 0.01 0.01 0.01 0.01 0.02 0.02 0.02 0.02 0.02 0.02 0.02 0.02 0.01 0.01 0.02 0.02 0.02 0.01 0.01 0.01 0.02 0.02 0.03 0.04 0.04 0.04 0.04 0.04 0.03 0.03 0.02 0.02 0.01 0.01 0.01 0.01 0.03 0.03
0.01 0.01 0.01 0.01 0.01 0.01 0.02 0.03 0.03 0.02 0.03 0.03 0.02 0.02 0.01 0.02 0.02 0.02 0.02 0.02 0.03 0.02 0.02 0.02 0.02 0.02 0.02 0.01 0.02 0.02 0.02 0.03 0.03 0.03 0.03 0.02 0.02 0.02 0.02 0.02 0.03 0.03 0.02 0.02
0.00 0.00 0.00 0.01 0.01 0.02 0.04 0.05 0.05 0.03 0.04 0.05 0.04 0.02 0.02 0.01 0.01 0.01 0.02 0.03 0.03 0.02 0.02 0.03 0.03 0.03 0.02 0.02 0.02 0.01 0.01 0.01 0.01 0.02 0.02 0.02 0.02 0.02 0.02 0.02 0.03 0.03 0.03 0.03
0.00 0.00 0.00 0.01 0.01 0.04 0.05 0.05 0.05 0.04 0.03 0.05 0.05 0.03 0.02 0.01 0.01 0.02 0.03 0.03 0.02 0.02 0.01 0.02 0.02 0.02 0.02 0.01 0.01 0.02 0.02 0.02 0.02 0.01 0.01 0.02 0.02 0.01 0.01 0.01 0.02 0.02 0.02 0.03
0.00 0.00 0.00 0.01 0.01 0.01 0.02 0.02 0.02 0.02 0.02 0.03 0.04 0.03 0.02 0.01 0.02 0.02 0.03 0.02 0.02 0.02 0.01 0.01 0.01 0.01 0.01 0.01 0.01 0.01 0.01 0.01 0.01 0.01 0.02 0.02 0.02 0.02 0.01 0.01 0.01 0.02 0.02 0.02
0.01 0.00 0.01 0.01 0.01 0.01 0.00 0.00 0.00 0.01 0.01 0.02 0.01 0.01 0.01 0.01 0.01 0.02 0.03 0.03 0.02 0.01 0.01 0.01 0.01 0.00 0.01 0.00 0.01 0.01 0.01 0.01 0.01 0.01 0.01 0.01 0.01 0.01 0.01 0.02 0.02 0.01 0.01 0.01
0.01 0.02 0.03 0.04 0.02 0.01 0.01 0.00 0.00 0.00 0.01 0.00 0.00 0.00 0.01 0.01 0.01 0.01 0.01 0.03 0.03 0.02 0.01 0.01 0.00 0.00 0.01 0.01 0.01 0.01 0.01 0.01 0.01 0.01 0.01 0.01 0.01 0.01 0.01 0.01 0.02 0.01 0.01 0.01
0.02 0.02 0.02 0.02 0.01 0.01 0.00 0.00 0.01 0.01 0.01 0.01 0.00 0.00 0.00 0.00 0.00 0.00 0.01 0.01 0.03 0.03 0.02 0.01 0.01 0.01 0.01 0.01 0.02 0.02 0.02 0.02 0.02 0.03 0.03 0.02 0.02 0.02 0.02 0.02 0.01 0.01 0.01 0.01
0.01 0.01 0.01 0.01 0.00 0.01 0.01 0.01 0.01 0.01 0.01 0.00 0.00 0.00 0.00 0.00 0.00 0.00 0.01 0.01 0.02 0.03 0.03 0.02 0.01 0.01 0.01 0.02 0.02 0.02 0.02 0.02 0.02 0.02 0.03 0.02 0.02 0.02 0.02 0.01 0.01 0.01 0.01 0.01
MSLP
1005.03 1005.57 1006.07 1006.51 1006.85 1007.09 1007.23 1007.27 1007.23 1007.13 1007.02 1006.92 1006.87 1006.92 1007.08 1007.38 1007.82 1008.40 1009.11 1009.92 1010.80 1011.73 1012.66 1013.57 1014.43 1015.20 1015.86 1016.39 1016.78 1017.02 1017.12 1017.08 1016.92 1016.67 1016.34 1015.96 1015.57 1015.18 1014.80 1014.44 1014.09 1013.76 1013.42 1013.06
1005.00 1005.51 1005.94 1006.28 1006.50 1006.62 1006.65 1006.61 1006.53 1006.44 1006.38 1006.36 1006.43 1006.59 1006.85 1007.23 1007.72 1008.32 1009.01 1009.79 1010.64 1011.53 1012.44 1013.34 1014.20 1014.99 1015.67 1016.22 1016.61 1016.83 1016.88 1016.77 1016.53 1016.18 1015.76 1015.31 1014.87 1014.44 1014.06 1013.73 1013.43 1013.16 1012.89 1012.60
1004.93 1005.40 1005.77 1006.02 1006.14 1006.16 1006.09 1005.99 1005.89 1005.83 1005.82 1005.90 1006.08 1006.36 1006.74 1007.20 1007.75 1008.37 1009.07 1009.82 1010.62 1011.47 1012.33 1013.20 1014.03 1014.81 1015.47 1016.00 1016.37 1016.55 1016.56 1016.39 1016.07 1015.65 1015.16 1014.65 1014.16 1013.71 1013.32 1013.00 1012.73 1012.50 1012.28 1012.04
1004.75 1005.19 1005.50 1005.68 1005.72 1005.67 1005.55 1005.42 1005.32 1005.30 1005.37 1005.55 1005.86 1006.26 1006.75 1007.32 1007.93 1008.59 1009.29 1010.02 1010.78 1011.57 1012.37 1013.18 1013.95 1014.67 1015.29 1015.77 1016.09 1016.23 1016.18 1015.96 1015.59 1015.11 1014.57 1014.02 1013.49 1013.02 1012.62 1012.30 1012.03 1011.81 1011.59 1011.36
1004.43 1004.82 1005.09 1005.22 1005.22 1005.13 1005.00 1004.87 1004.81 1004.85 1005.01 1005.31 1005.74 1006.28 1006.89 1007.56 1008.25 1008.96 1009.67 1010.38 1011.10 1011.83 1012.55 1013.28 1013.97 1014.60 1015.14 1015.56 1015.81 1015.89 1015.80 1015.53 1015.12 1014.61 1014.04 1013.46 1012.91 1012.42 1011.99 1011.64 1011.35 1011.09 1010.85 1010.59
1003.96 1004.31 1004.54 1004.64 1004.62 1004.53 1004.42 1004.34 1004.34 1004.47 1004.74 1005.16 1005.72 1006.38 1007.11 1007.88 1008.66 1009.42 1010.15 1010.85 1011.53 1012.19 1012.84 1013.47 1014.06 1014.59 1015.04 1015.36 1015.55 1015.57 1015.42 1015.12 1014.70 1014.17 1013.59 1013.00 1012.43 1011.92 1011.46 1011.06 1010.71 1010.40 1010.08 1009.77
1003.37 1003.66 1003.86 1003.95 1003.95 1003.89 1003.83 1003.83 1003.92 1004.15 1004.54 1005.08 1005.76 1006.54 1007.38 1008.24 1009.09 1009.89 1010.65 1011.35 1011.99 1012.60 1013.17 1013.70 1014.19 1014.61 1014.96 1015.19 1015.30 1015.26 1015.08 1014.76 1014.32 1013.80 1013.23 1012.64 1012.07 1011.53 1011.03 1010.58 1010.16 1009.75 1009.36 1008.96
1002.73 1002.97 1003.13 1003.22 1003.25 1003.25 1003.27 1003.36 1003.56 1003.90 1004.40 1005.05 1005.83 1006.71 1007.64 1008.57 1009.48 1010.33 1011.10 1011.80 1012.42 1012.97 1013.47 1013.91 1014.30 1014.63 1014.87 1015.02 1015.05 1014.96 1014.75 1014.43 1014.00 1013.50 1012.95 1012.38 1011.81 1011.26 1010.72 1010.21 1009.71 1009.22 1008.74 1008.24
1002.12 1002.30 1002.44 1002.54 1002.60 1002.67 1002.78 1002.97 1003.28 1003.72 1004.32 1005.06 1005.92 1006.87 1007.86 1008.85 1009.79 1010.67 1011.46 1012.15 1012.75 1013.26 1013.70 1014.07 1014.37 1014.60 1014.76 1014.83 1014.80 1014.67 1014.44 1014.12 1013.72 1013.25 1012.74 1012.20 1011.65 1011.09 1010.54 1009.98 1009.42 1008.86 1008.29 1007.72
1001.62 1001.74 1001.86 1001.97 1002.08 1002.22 1002.41 1002.70 1003.10 1003.63 1004.31 1005.11 1006.03 1007.02 1008.04 1009.05 1010.01 1010.89 1011.69 1012.37 1012.96 1013.44 1013.83 1014.14 1014.37 1014.53 1014.61 1014.62 1014.54 1014.38 1014.14 1013.83 1013.46 1013.03 1012.57 1012.08 1011.56 1011.03 1010.47 1009.90 1009.31 1008.70 1008.07 1007.45
1001.30 1001.36 1001.45 1001.57 1001.72 1001.92 1002.19 1002.56 1003.04 1003.64 1004.37 1005.21 1006.15 1007.15 1008.17 1009.18 1010.14 1011.02 1011.81 1012.49 1013.05 1013.51 1013.87 1014.14 1014.32 1014.42 1014.44 1014.39 1014.27 1014.09 1013.85 1013.56 1013.22 1012.85 1012.44 1012.00 1011.54 1011.05 1010.53 1009.97 1009.38 1008.76 1008.12 1007.47
1001.15 1001.17 1001.24 1001.36 1001.53 1001.78 1002.11 1002.54 1003.08 1003.73 1004.49 1005.35 1006.29 1007.28 1008.28 1009.27 1010.21 1011.08 1011.85 1012.52 1013.08 1013.52 1013.86 1014.09 1014.23 1014.29 1014.27 1014.18 1014.03 1013.83 1013.58 1013.31 1013.00 1012.68 1012.33 1011.96 1011.57 1011.14 1010.68 1010.17 1009.62 1009.03 1008.42 1007.79
1001.14 1001.12 1001.16 1001.28 1001.47 1001.76 1002.13 1002.61 1003.19 1003.87 1004.65 1005.51 1006.44 1007.40 1008.38 1009.34 1010.25 1011.10 1011.86 1012.52 1013.07 1013.50 1013.82 1014.04 1014.16 1014.18 1014.12 1014.00 1013.82 1013.61 1013.36 1013.10 1012.82 1012.54 1012.25 1011.95 1011.63 1011.28 1010.89 1010.47 1009.99 1009.47 1008.91 1008.33
1001.20 1001.14 1001.15 1001.26 1001.46 1001.76 1002.17 1002.68 1003.29 1003.99 1004.79 1005.65 1006.56 1007.51 1008.46 1009.39 1010.28 1011.11 1011.86 1012.51 1013.05 1013.48 1013.80 1014.01 1014.11 1014.11 1014.03 1013.88 1013.68 1013.44 1013.19 1012.93 1012.67 1012.43 1012.19 1011.95 1011.70 1011.44 1011.14 1010.80 1010.42 1009.99 1009.51 1009.00
1001.24 1001.13 1001.11 1001.20 1001.39 1001.71 1002.14 1002.68 1003.32 1004.05 1004.86 1005.73 1006.64 1007.57 1008.50 1009.42 1010.29 1011.11 1011.85 1012.50 1013.04 1013.47 1013.79 1014.00 1014.09 1014.08 1013.98 1013.81 1013.59 1013.34 1013.07 1012.81 1012.57 1012.34 1012.14 1011.95 1011.77 1011.58 1011.37 1011.13 1010.84 1010.51 1010.13 1009.71
1001.19 1001.03 1000.97 1001.03 1001.21 1001.54 1001.99 1002.56 1003.23 1004.00 1004.84 1005.72 1006.64 1007.58 1008.50 1009.41 1010.27 1011.08 1011.82 1012.46 1013.01 1013.45 1013.77 1013.98 1014.08 1014.06 1013.96 1013.78 1013.54 1013.28 1013.00 1012.74 1012.49 1012.28 1012.10 1011.95 1011.81 1011.69 1011.55 1011.39 1011.20 1010.96 1010.67 1010.34
1001.02 1000.80 1000.69 1000.72 1000.89 1001.23 1001.70 1002.31 1003.03 1003.84 1004.71 1005.63 1006.57 1007.52 1008.45 1009.35 1010.21 1011.01 1011.74 1012.39 1012.94 1013.38 1013.72 1013.93 1014.03 1014.03 1013.93 1013.75 1013.51 1013.24 1012.96 1012.69 1012.44 1012.23 1012.06 1011.93 1011.83 1011.74 1011.66 1011.57 1011.45 1011.29 1011.09 1010.83
1000.73 1000.44 1000.29 1000.29 1000.46 1000.81 1001.32 1001.97 1002.73 1003.59 1004.51 1005.47 1006.44 1007.40 1008.34 1009.24 1010.09 1010.89 1011.61 1012.25 1012.80 1013.25 1013.59 1013.82 1013.94 1013.95 1013.86 1013.70 1013.47 1013.21 1012.93 1012.65 1012.41 1012.19 1012.02 1011.90 1011.81 1011.75 1011.70 1011.64 1011.58 1011.48 1011.34 1011.15
1000.38 1000.03 999.84 999.82 1000.00 1000.37 1000.91 1001.60 1002.42 1003.33 1004.30 1005.29 1006.29 1007.27 1008.21 1009.10 1009.94 1010.72 1011.42 1012.05 1012.59 1013.04 1013.39 1013.63 1013.77 1013.81 1013.75 1013.61 1013.41 1013.16 1012.90 1012.63 1012.39 1012.17 1012.00 1011.87 1011.78 1011.72 1011.68 1011.65 1011.61 1011.55 1011.45 1011.31
1000.05 999.66 999.45 999.42 999.61 1000.00 1000.58 1001.32 1002.19 1003.14 1004.14 1005.17 1006.18 1007.16 1008.09 1008.96 1009.77 1010.52 1011.20 1011.80 1012.32 1012.76 1013.12 1013.38 1013.54 1013.61 1013.59 1013.49 1013.32 1013.11 1012.87 1012.62 1012.38 1012.17 1011.99 1011.86 1011.76 1011.69 1011.65 1011.62 1011.59 1011.55 1011.48 1011.38
999.83 999.42 999.19 999.18 999.38 999.81 1000.42 1001.20 1002.10 1003.08 1004.10 1005.13 1006.14 1007.10 1008.01 1008.85 1009.62 1010.32 1010.96 1011.53 1012.03 1012.46 1012.82 1013.09 1013.28 1013.38 1013.40 1013.35 1013.22 1013.05 1012.84 1012.62 1012.40 1012.20 1012.02 1011.88 1011.77 1011.70 1011.64 1011.61 1011.58 1011.54 1011.49 1011.41
999.76 999.35 999.14 999.14 999.37 999.82 1000.46 1001.26 1002.17 1003.16 1004.18 1005.20 1006.18 1007.11 1007.97 1008.76 1009.49 1010.14 1010.74 1011.27 1011.75 1012.16 1012.51 1012.80 1013.01 1013.15 1013.21 1013.20 1013.12 1012.99 1012.82 1012.63 1012.43 1012.24 1012.08 1011.93 1011.82 1011.74 1011.68 1011.64 1011.61 1011.58 1011.54 1011.47
999.87 999.49 999.30 999.33 999.58 1000.04 1000.69 1001.49 1002.39 1003.36 1004.35 1005.33 1006.27 1007.15 1007.96 1008.70 1009.37 1009.98 1010.52 1011.02 1011.47 1011.88 1012.23 1012.53 1012.76 1012.93 1013.03 1013.06 1013.02 1012.93 1012.80 1012.64 1012.47 1012.30 1012.15 1012.01 1011.91 1011.83 1011.78 1011.74 1011.72 1011.69 1011.66 1011.61
1000.13 999.78 999.63 999.68 999.95 1000.41 1001.05 1001.82 1002.69 1003.61 1004.55 1005.47 1006.35 1007.17 1007.92 1008.61 1009.23 1009.79 1010.31 1010.78 1011.22 1011.61 1011.96 1012.27 1012.52 1012.71 1012.84 1012.90 1012.90 1012.85 1012.75 1012.62 1012.48 1012.34 1012.20 1012.09 1012.01 1011.95 1011.91 1011.89 1011.88 1011.88 1011.86 1011.84
1000.48 1000.18 1000.06 1000.13 1000.40 1000.84 1001.44 1002.17 1002.97 1003.83 1004.70 1005.55 1006.36 1007.12 1007.81 1008.45 1009.03 1009.57 1010.06 1010.52 1010.95 1011.34 1011.69 1012.01 1012.27 1012.48 1012.63 1012.71 1012.74 1012.71 1012.64 1012.54 1012.43 1012.32 1012.22 1012.13 1012.08 1012.05 1012.05 1012.06 1012.08 1012.11 1012.13 1012.13
1000.87 1000.62 1000.53 1000.60 1000.85 1001.26 1001.80 1002.45 1003.17 1003.94 1004.73 1005.50 1006.24 1006.94 1007.59 1008.20 1008.75 1009.27 1009.76 1010.21 1010.64 1011.03 1011.40 1011.72 1011.99 1012.21 1012.36 1012.46 1012.50 1012.49 1012.44 1012.37 1012.29 1012.21 1012.15 1012.11 1012.10 1012.12 1012.16 1012.22 1012.29 1012.36 1012.42 1012.46
1001.24 1001.03 1000.96 1001.02 1001.24 1001.59 1002.06 1002.62 1003.25 1003.93 1004.63 1005.32 1006.00 1006.65 1007.26 1007.84 1008.39 1008.91 1009.40 1009.86 1010.29 1010.69 1011.06 1011.38 1011.65 1011.87 1012.03 1012.13 1012.17 1012.18 1012.15 1012.10 1012.05 1012.01 1011.99 1012.00 1012.05 1012.12 1012.22 1012.34 1012.47 1012.59 1012.70 1012.79
Thickness
5736 5741 5742 5740 5739 5740 5739 5742 5739 5742 5740 5742 5744 5743 5743 5742 5741 5739 5738 5736 5733 5731 5728 5727 5725 5723 5722 5722 5720 5719 5717 5715 5713 5712 5711 5710 5708 5707 5706 5705 5704 5702 5701 5699
5723 5732 5734 5731 5735 5736 5736 5738 5738 5736 5734 5743 5742 5740 5737 5735 5734 5731 5730 5729 5727 5725 5722 5720 5718 5717 5716 5715 5714 5713 5711 5709 5708 5707 5706 5704 5703 5701 5700 5699 5698 5697 5695 5694
5714 5723 5723 5715 5726 5729 5729 5733 5732 5726 5730 5735 5731 5729 5729 5729 5728 5725 5724 5722 5720 5718 5715 5713 5712 5711 5709 5708 5707 5706 5704 5703 5702 5702 5701 5699 5699 5696 5694 5693 5692 5690 5689 5688
5712 5707 5694 5717 5731 5730 5726 5726 5729 5727 5727 5728 5726 5726 5726 5725 5723 5721 5719 5716 5714 5712 5709 5708 5706 5705 5703 5702 5700 5699 5697 5697 5697 5695 5694 5693 5691 5689 5687 5686 5684 5683 5682 5681
5705 5700 5702 5711 5717 5718 5714 5714 5721 5720 5720 5721 5722 5718 5716 5718 5718 5716 5714 5711 5708 5707 5705 5703 5700 5699 5696 5695 5693 5691 5690 5689 5689 5687 5687 5685 5684 5682 5680 5679 5677 5676 5675 5675
5697 5690 5687 5701 5714 5718 5711 5702 5716 5716 5713 5714 5712 5708 5709 5710 5710 5709 5707 5705 5702 5700 5698 5695 5693 5692 5689 5688 5687 5684 5683 5682 5682 5680 5679 5677 5676 5674 5673 5672 5671 5670 5669 5668
5691 5687 5695 5703 5708 5708 5691 5695 5707 5709 5708 5707 5705 5705 5705 5704 5703 5702 5701 5699 5696 5694 5691 5687 5686 5684 5681 5680 5679 5677 5676 5675 5674 5673 5672 5670 5668 5667 5665 5664 5663 5662 5662 5661
5686 5680 5683 5698 5699 5693 5692 5699 5701 5702 5703 5700 5699 5698 5697 5696 5694 5694 5692 5690 5689 5686 5683 5680 5679 5676 5674 5673 5672 5671 5669 5668 5666 5665 5665 5664 5661 5659 5658 5656 5655 5654 5654 5653
5685 5683 5685 5691 5690 5692 5693 5692 5693 5696 5697 5695 5692 5691 5690 5688 5687 5686 5684 5682 5681 5678 5676 5673 5671 5669 5666 5665 5664 5662 5661 5660 5658 5658 5656 5655 5653 5652 5651 5649 5649 5649 5648 5648
5675 5678 5681 5683 5685 5686 5686 5687 5689 5691 5691 5690 5686 5685 5683 5681 5679 5677 5676 5674 5673 5671 5668 5666 5664 5662 5660 5658 5656 5654 5653 5652 5651 5650 5649 5647 5646 5646 5645 5644 5642 5642 5641 5641
5667 5671 5673 5676 5678 5678 5679 5681 5683 5683 5684 5683 5681 5678 5677 5674 5672 5670 5669 5667 5665 5663 5661 5659 5657 5655 5654 5652 5649 5647 5646 5645 5644 5644 5642 5640 5638 5637 5637 5636 5635 5634 5635 5635
5663 5667 5666 5667 5671 5672 5671 5672 5674 5674 5675 5676 5674 5671 5669 5667 5666 5664 5662 5660 5658 5656 5655 5653 5651 5649 5647 5645 5643 5641 5640 5639 5639 5637 5636 5634 5632 5630 5626 5625 5623 5622 5621 5621
5660 5663 5664 5664 5666 5666 5666 5667 5668 5668 5667 5667 5667 5665 5662 5660 5658 5656 5655 5653 5651 5650 5649 5647 5644 5643 5641 5639 5637 5635 5633 5632 5632 5631 5630 5628 5626 5625 5622 5618 5615 5613 5612 5611
5654 5655 5654 5657 5658 5659 5659 5660 5662 5662 5662 5661 5659 5657 5655 5653 5651 5649 5648 5647 5646 5645 5643 5641 5639 5636 5635 5633 5630 5629 5629 5627 5625 5625 5624 5623 5621 5619 5617 5616 5614 5612 5607 5604
5648 5649 5649 5651 5651 5651 5653 5654 5653 5653 5652 5651 5650 5648 5647 5645 5644 5643 5642 5641 5639 5638 5637 5635 5633 5630 5629 5627 5625 5623 5624 5623 5620 5620 5619 5617 5615 5614 5612 5610 5609 5608 5606 5601
5642 5643 5643 5643 5643 5645 5646 5646 5645 5645 5645 5643 5641 5640 5640 5639 5638 5636 5635 5634 5632 5631 5630 5628 5626 5625 5623 5621 5619 5618 5617 5613 5612 5613 5612 5610 5609 5607 5606 5604 5604 5602 5600 5599
5634 5634 5636 5636 5637 5638 5639 5639 5639 5638 5638 5636 5635 5634 5633 5632 5630 5628 5628 5627 5625 5624 5622 5621 5620 5619 5618 5615 5613 5613 5612 5608 5603 5605 5605 5603 5602 5601 5600 5598 5597 5596 5595 5592
5631 5631 5632 5631 5631 5631 5631 5632 5631 5631 5630 5629 5628 5627 5625 5624 5623 5621 5621 5619 5618 5617 5616 5615 5613 5612 5611 5608 5607 5606 5605 5603 5600 5598 5597 5595 5594 5594 5593 5592 5591 5589 5589 5587
5625 5625 5625 5626 5626 5625 5625 5624 5623 5623 5622 5621 5620 5619 5618 5617 5616 5615 5614 5612 5610 5609 5608 5607 5602 5603 5603 5601 5599 5598 5598 5597 5595 5593 5591 5587 5587 5588 5588 5586 5585 5584 5584 5582
5617 5619 5619 5620 5620 5619 5617 5617 5616 5615 5614 5614 5613 5611 5610 5609 5609 5608 5607 5605 5605 5603 5601 5599 5597 5597 5596 5595 5592 5595 5594 5592 5590 5588 5585 5584 5583 5583 5582 5581 5580 5579 5578 5576
5610 5611 5612 5612 5612 5611 5611 5609 5608 5607 5607 5606 5605 5605 5604 5603 5603 5601 5600 5599 5596 5594 5593 5590 5591 5591 5590 5589 5585 5589 5589 5587 5585 5583 5581 5580 5579 5578 5577 5575 5574 5573 5572 5571
5604 5605 5605 5606 5605 5605 5604 5603 5602 5601 5601 5600 5599 5599 5597 5596 5596 5595 5594 5593 5591 5586 5587 5588 5587 5583 5582 5580 5584 5584 5583 5581 5580 5578 5577 5576 5575 5573 5571 5569 5568 5567 5566 5565
5598 5598 5599 5599 5599 5599 5598 5598 5597 5596 5595 5594 5594 5593 5592 5591 5591 5589 5587 5586 5585 5581 5583 5583 5578 5574 5572 5575 5578 5578 5577 5575 5574 5573 5572 5571 5570 5568 5566 5565 5563 5562 5561 5560
5591 5592 5592 5593 5593 5592 5591 5591 5591 5590 5589 5589 5588 5587 5586 5585 5585 5585 5583 5577 5575 5574 5576 5572 5568 5567 5566 5571 5572 5572 5571 5569 5569 5568 5567 5565 5564 5562 5561 5559 5557 5556 5554 5553
5585 5585 5586 5586 5586 5587 5586 5585 5585 5584 5584 5583 5582 5580 5580 5580 5579 5578 5576 5573 5569 5568 5570 5567 5562 5561 5564 5566 5566 5566 5565 5564 5563 5562 5560 5559 5557 5556 5554 5552 5550 5549 5547 5546
5579 5580 5580 5579 5580 5581 5582 5582 5581 5579 5579 5578 5577 5576 5575 5573 5572 5571 5569 5568 5566 5563 5565 5564 5562 5559 5561 5562 5561 5560 5559 5557 5555 5554 5552 5551 5549 5548 5546 5545 5543 5542 5540 5539
5575 5575 5574 5575 5576 5576 5576 5576 5574 5573 5573 5572 5571 5569 5568 5567 5566 5565 5564 5563 5561 5560 5560 5559 5558 5557 5556 5555 5554 5552 5551 5550 5548 5546 5545 5544 5542 5541 5539 5538 5537 5535 5534 5533